User: anonymous   Login
Location: Dover
(39.1580°N, 75.5250°W)
Time: 13:53:53
(UTC-04:00)
Language:

SeaSat 1 - Orbit

View from above orbital plane
View from above orbital plane
View from above satellite
View from above satellite

Ground track
Ground track

The orbit data is extracted from the following two-line orbital elements,

1 10967U 78064A   17111.92756769 -.00000036 +00000-0 +29856-4 0  9994
2 10967 108.0062 181.8785 0002639 274.3446 085.7397 14.43637206038253
Epoch (UTC): 21 April 2017 22:15:41
Eccentricity: 0.0002639
inclination: 108.0062°
perigee height: 744 km
apogee height: 748 km
right ascension of ascending node: 181.8785°
argument of perigee: 274.3446°
revolutions per day: 14.43637206
mean anomaly at epoch: 85.7397°
orbit number at epoch: 3825

The dashed part of the orbit path shows where the satellite is in the earth's shadow,  

DLR